Location: Lewisville
(33.0462°N, 96.9942°W)
Time: 09:45:22
(UTC-05:00)

LightSail 2 - Pass Details

Date: 08 March 2020
Orbit: 678 x 710 km, 24.0° (Epoch: 13 April)

Event Time Altitude Azimuth Distance (km) Brightness Sun altitude
Rises 20:54:36 0° 248° (WSW) 3,072 9.5 -18.3°
Reaches altitude 10° 20:57:18 10° 237° (WSW) 2,141 8.3 -18.9°
Maximum altitude 21:01:37 29° 178° (S) 1,253 6.3 -19.8°
Enters shadow 21:02:49 26° 153° (SSE) 1,339 6.2 -20.0°
